Weather Roundup
Issued by NWS

Home | Current Version | Previous Version | Graphics & Text | Print | Product List | Glossary Off
Versions: 1 2 3 4 5 6 7 8 9 10 11 12 13 14 15 16 17 18 19 20 21 22 23 24 25 26 27 28 29 30 31 32 33 34 35 36 37 38 39 40 41 42 43 44 45 46 47 48 49 50

000
NZUS93 KARX 260410
HRRWXR

CURRENT HOURLY OBSERVATIONS ACROSS
MUCH OF THE UPPER MISSISSIPPI VALLEY
NATIONAL WEATHER SERVICE LA CROSSE WI
1100 PM CDT WED MAY 25 2016


...SOUTHEAST MINNESOTA...


CITY           SKY/WX    TMP DP  RH WIND       PRES   REMARKS
ROCHESTER      CLEAR     66  64  93 S6        29.86R
ROCHESTER/MAYO FAIR      68  66  92 SE8       29.86R
WINONA         CLEAR     64  64 100 CALM      29.85R FOG
AUSTIN         CLEAR     70  63  78 S9        29.86R
ALBERT LEA     CLEAR     70  63  78 S7        29.84R
DODGE CENTER   CLEAR     66  63  88 S8        29.85R
PRESTON        CLEAR     64  60  87 S6        29.87S
OWATONNA       CLEAR     64  63  94 SE5       29.84R
FARIBAULT      CLEAR     63  61  94 CALM      29.83R
$$

...ELSEWHERE IN MINNESOTA...


CITY           SKY/WX    TMP DP  RH WIND       PRES   REMARKS
MINNEAPOLIS    PTCLDY    68  62  81 E7        29.83R
INTNL FALLS    CLOUDY    59  51  75 SE8       29.80F
DULUTH         CLOUDY    47  45  93 E12       29.86F
RED WING       CLEAR     64  63  94 E3        29.83S
REDWOOD FALLS  CLEAR     70  59  68 W6        29.82R
MANKATO        CLEAR     70  57  64 SE5       29.82S
WORTHINGTON    PTCLDY    69  63  81 CALM      29.84R
FAIRMONT       PTCLDY    68  57  68 CALM      29.82R THUNDER
$$

...SOUTHWEST WISCONSIN...


CITY           SKY/WX    TMP DP  RH WIND       PRES   REMARKS
LA CROSSE      CLEAR     67  64  90 SE5       29.84R
PRAIRIE DU CHI PTCLDY    67  60  79 CALM      29.86S
BOSCOBEL       CLEAR     64  62  93 CALM      29.87S
LONE ROCK      CLEAR     68  62  81 E3        29.88R
PLATTEVILLE    CLEAR     70  58  67 S6        29.90S
FORT MC COY    CLEAR     64  64 100 CALM      29.87S FOG
CAMP DOUGLAS   FOG       61  61 100 SE7       29.87S VSB 1
MAUSTON-NEW LI PTCLDY    64  64  99 SE3       29.87S FOG
VIROQUA        FAIR      68  62  79 S6        29.89S
WIS DELLS      MOCLDY    64  62  93 CALM      29.89S FOG
$$

...ELSEWHERE IN WISCONSIN...


CITY           SKY/WX    TMP DP  RH WIND       PRES   REMARKS
MILWAUKEE      CLOUDY    59  57  93 SE7       29.93R
MADISON        MOCLDY    69  63  81 S7        29.89S
GREEN BAY      CLOUDY    61  59  93 E5        29.89F FOG
EAU CLAIRE     FOG       60  60 100 CALM      29.85R VSB 1/4
BLACK RVR FLS  FAIR      61  61 100 CALM      29.85S FOG
MEDFORD        CLOUDY    62  62 100 SW5       29.87R
WAUSAU         CLOUDY    64  32  30 SW7       29.87R
WIS RAPIDS     CLOUDY    63  60  90 CALM      29.88F
MARSHFIELD     CLOUDY    64  61  90 S6        29.87S FOG
RICE LAKE      CLEAR     59  57  93 CALM      29.87F
$$

...NORTHEAST IOWA...


CITY           SKY/WX    TMP DP  RH WIND       PRES   REMARKS
WATERLOO       MOCLDY    71  59  65 S6        29.86R
DUBUQUE        PTCLDY    67  59  75 SW8       29.90S
DECORAH        MOCLDY    70  63  78 S5        29.87R
MASON CITY     MOCLDY    67  65  93 S7        29.86R
CHARLES CITY   MOCLDY    70  63  78 S8        29.87S
OELWEIN        MOCLDY    70  61  73 S8        29.88S
$$

...ELSEWHERE IN IOWA...


CITY           SKY/WX    TMP DP  RH WIND       PRES   REMARKS
DES MOINES     CLOUDY    75  65  70 S6        29.85S
IOWA CITY      CLOUDY    72  61  68 CALM      29.90S
FORT DODGE     CLOUDY    72  63  73 S7        29.86R
MARSHALLTOWN   CLOUDY    70  63  78 E7        29.86S
CEDAR RAPIDS   CLOUDY    72  62  71 SE5       29.88S
$$

...NORTHERN ILLINOIS...


CITY           SKY/WX    TMP DP  RH WIND       PRES   REMARKS
CHICAGO-OHARE  CLOUDY    67  65  93 E8        29.95R
CHICAGO-MIDWAY CLOUDY    67  63  87 E9        29.95S
MOLINE         PTCLDY    71  61  70 S3        29.89S
ROCKFORD       PTCLDY    68  64  87 S7        29.94S
PEORIA         CLEAR     73  65  75 S8        29.93S
$$

NOTE: "FAIR" INDICATES FEW OR NO CLOUDS BELOW 12,000 FEET WITH NO
SIGNIFICANT WEATHER AND/OR OBSTRUCTIONS TO VISIBILITY. WIND
SPEEDS ARE IN MILES-PER-HOUR.




USA.gov is the U.S. government's official web portal to all federal, state and local government web resources and services.